Year,Month,Day,Hour,Minute,Value (Times are PST for temperature in C)
2009,05,17,00,00,11.40
2009,05,17,00,01,11.40
2009,05,17,00,02,11.30
2009,05,17,00,03,11.30
2009,05,17,00,04,11.30
2009,05,17,00,05,11.30
2009,05,17,00,06,11.20
2009,05,17,00,07,11.20
2009,05,17,00,08,11.20
2009,05,17,00,09,11.10
2009,05,17,00,10,11.10
2009,05,17,00,11,11.10
2009,05,17,00,12,11.10
2009,05,17,00,13,11.10
2009,05,17,00,14,11.00
2009,05,17,00,15,11.00
2009,05,17,00,16,11.00
2009,05,17,00,17,11.00
2009,05,17,00,18,10.90
2009,05,17,00,19,10.90
2009,05,17,00,20,10.90
2009,05,17,00,21,10.90
2009,05,17,00,22,10.90
2009,05,17,00,23,10.90
2009,05,17,00,24,10.90
2009,05,17,00,25,10.90
2009,05,17,00,26,10.90
2009,05,17,00,27,10.90
2009,05,17,00,28,10.80
2009,05,17,00,29,10.80
2009,05,17,00,30,10.80
2009,05,17,00,31,10.80
2009,05,17,00,32,10.80
2009,05,17,00,33,10.80
2009,05,17,00,34,10.80
2009,05,17,00,35,10.80
2009,05,17,00,36,10.80
2009,05,17,00,37,10.80
2009,05,17,00,38,10.80
2009,05,17,00,39,10.80
2009,05,17,00,40,10.80
2009,05,17,00,41,10.80
2009,05,17,00,42,10.80
2009,05,17,00,43,10.80
2009,05,17,00,44,10.80
2009,05,17,00,45,10.80
2009,05,17,00,46,10.80
2009,05,17,00,47,10.80
2009,05,17,00,48,10.90
2009,05,17,00,49,10.90
2009,05,17,00,50,10.90
2009,05,17,00,51,10.90
2009,05,17,00,52,10.90
2009,05,17,00,53,10.80
2009,05,17,00,54,10.80
2009,05,17,00,55,10.80
2009,05,17,00,56,10.80
2009,05,17,00,57,10.80
2009,05,17,00,58,10.80
2009,05,17,00,59,10.80
2009,05,17,01,00,10.80
2009,05,17,01,01,10.80
2009,05,17,01,02,10.80
2009,05,17,01,03,10.80
2009,05,17,01,04,10.70
2009,05,17,01,05,10.70
2009,05,17,01,06,10.70
2009,05,17,01,07,10.70
2009,05,17,01,08,10.70
2009,05,17,01,09,10.70
2009,05,17,01,10,10.70
2009,05,17,01,11,10.60
2009,05,17,01,12,10.60
2009,05,17,01,13,10.60
2009,05,17,01,14,10.60
2009,05,17,01,15,10.60
2009,05,17,01,16,10.60
2009,05,17,01,17,10.60
2009,05,17,01,18,10.50
2009,05,17,01,19,10.50
2009,05,17,01,20,10.50
2009,05,17,01,21,10.50
2009,05,17,01,22,10.50
2009,05,17,01,23,10.50
2009,05,17,01,24,10.50
2009,05,17,01,25,10.50
2009,05,17,01,26,10.50
2009,05,17,01,27,10.50
2009,05,17,01,28,10.50
2009,05,17,01,29,10.40
2009,05,17,01,30,10.40
2009,05,17,01,31,10.40
2009,05,17,01,32,10.40
2009,05,17,01,33,10.40
2009,05,17,01,34,10.40
2009,05,17,01,35,10.40
2009,05,17,01,36,10.40
2009,05,17,01,37,10.40
2009,05,17,01,38,10.40
2009,05,17,01,39,10.40
2009,05,17,01,40,10.50
2009,05,17,01,41,10.50
2009,05,17,01,42,10.50
2009,05,17,01,43,10.50
2009,05,17,01,44,10.50
2009,05,17,01,45,10.50
2009,05,17,01,46,10.40
2009,05,17,01,47,10.40
2009,05,17,01,48,10.40
2009,05,17,01,49,10.40
2009,05,17,01,50,10.40
2009,05,17,01,51,10.40
2009,05,17,01,52,10.40
2009,05,17,01,53,10.40
2009,05,17,01,54,10.40
2009,05,17,01,55,10.40
2009,05,17,01,56,10.40
2009,05,17,01,57,10.40
2009,05,17,01,58,10.40
2009,05,17,01,59,10.40
2009,05,17,02,00,10.40
2009,05,17,02,01,10.40
2009,05,17,02,02,10.40
2009,05,17,02,03,10.40
2009,05,17,02,04,10.40
2009,05,17,02,05,10.40
2009,05,17,02,06,10.40
2009,05,17,02,07,10.30
2009,05,17,02,08,10.30
2009,05,17,02,09,10.30
2009,05,17,02,10,10.30
2009,05,17,02,11,10.30
2009,05,17,02,12,10.30
2009,05,17,02,13,10.30
2009,05,17,02,14,10.30
2009,05,17,02,15,10.30
2009,05,17,02,16,10.30
2009,05,17,02,17,10.30
2009,05,17,02,18,10.30
2009,05,17,02,19,10.30
2009,05,17,02,20,10.30
2009,05,17,02,21,10.30
2009,05,17,02,22,10.30
2009,05,17,02,23,10.30
2009,05,17,02,24,10.30
2009,05,17,02,25,10.30
2009,05,17,02,26,10.30
2009,05,17,02,27,10.30
2009,05,17,02,28,10.20
2009,05,17,02,29,10.20
2009,05,17,02,30,10.20
2009,05,17,02,31,10.20
2009,05,17,02,32,10.20
2009,05,17,02,33,10.20
2009,05,17,02,34,10.20
2009,05,17,02,35,10.20
2009,05,17,02,36,10.20
2009,05,17,02,37,10.10
2009,05,17,02,38,10.10
2009,05,17,02,39,10.10
2009,05,17,02,40,10.10
2009,05,17,02,41,10.10
2009,05,17,02,42,10.00
2009,05,17,02,43,10.00
2009,05,17,02,44,10.00
2009,05,17,02,45,10.00
2009,05,17,02,46,10.00
2009,05,17,02,47,10.00
2009,05,17,02,48,10.00
2009,05,17,02,49,10.00
2009,05,17,02,50,10.00
2009,05,17,02,51,10.00
2009,05,17,02,52,10.00
2009,05,17,02,53,10.00
2009,05,17,02,54,10.00
2009,05,17,02,55,9.90
2009,05,17,02,56,9.90
2009,05,17,02,57,9.90
2009,05,17,02,58,9.90
2009,05,17,02,59,9.90
2009,05,17,03,00,9.80
2009,05,17,03,01,9.80
2009,05,17,03,02,9.80
2009,05,17,03,03,9.80
2009,05,17,03,04,9.80
2009,05,17,03,05,9.80
2009,05,17,03,06,9.80
2009,05,17,03,07,9.70
2009,05,17,03,08,9.70
2009,05,17,03,09,9.70
2009,05,17,03,10,9.70
2009,05,17,03,11,9.80
2009,05,17,03,12,9.80
2009,05,17,03,13,9.80
2009,05,17,03,14,9.80
2009,05,17,03,15,9.80
2009,05,17,03,16,9.80
2009,05,17,03,17,9.80
2009,05,17,03,18,9.80
2009,05,17,03,19,9.80
2009,05,17,03,20,9.80
2009,05,17,03,21,9.80
2009,05,17,03,22,9.80
2009,05,17,03,23,9.80
2009,05,17,03,24,9.80
2009,05,17,03,25,9.80
2009,05,17,03,26,9.80
2009,05,17,03,27,9.80
2009,05,17,03,28,9.70
2009,05,17,03,29,9.70
2009,05,17,03,30,9.70
2009,05,17,03,31,9.70
2009,05,17,03,32,9.70
2009,05,17,03,33,9.70
2009,05,17,03,34,9.70
2009,05,17,03,35,9.70
2009,05,17,03,36,9.70
2009,05,17,03,37,9.60
2009,05,17,03,38,9.60
2009,05,17,03,39,9.60
2009,05,17,03,40,9.60
2009,05,17,03,41,9.60
2009,05,17,03,42,9.60
2009,05,17,03,43,9.50
2009,05,17,03,44,9.50
2009,05,17,03,45,9.50
2009,05,17,03,46,9.60
2009,05,17,03,47,9.50
2009,05,17,03,48,9.60
2009,05,17,03,49,9.60
2009,05,17,03,50,9.60
2009,05,17,03,51,9.60
2009,05,17,03,52,9.60
2009,05,17,03,53,9.60
2009,05,17,03,54,9.60
2009,05,17,03,55,9.70
2009,05,17,03,56,9.70
2009,05,17,03,57,9.70
2009,05,17,03,58,9.70
2009,05,17,03,59,9.70
2009,05,17,04,00,9.70
2009,05,17,04,01,9.70
2009,05,17,04,02,9.70
2009,05,17,04,03,9.70
2009,05,17,04,04,9.70
2009,05,17,04,05,9.70
2009,05,17,04,06,9.70
2009,05,17,04,07,9.70
2009,05,17,04,08,9.70
2009,05,17,04,09,9.70
2009,05,17,04,10,9.70
2009,05,17,04,11,9.70
2009,05,17,04,12,9.70
2009,05,17,04,13,9.70
2009,05,17,04,14,9.70
2009,05,17,04,15,9.70
2009,05,17,04,16,9.70
2009,05,17,04,17,9.70
2009,05,17,04,18,9.70
2009,05,17,04,19,9.70
2009,05,17,04,20,9.70
2009,05,17,04,21,9.70
2009,05,17,04,22,9.70
2009,05,17,04,23,9.70
2009,05,17,04,24,9.80
2009,05,17,04,25,9.80
2009,05,17,04,26,9.80
2009,05,17,04,27,9.80
2009,05,17,04,28,9.80
2009,05,17,04,29,9.80
2009,05,17,04,30,9.80
2009,05,17,04,31,9.90
2009,05,17,04,32,9.90
2009,05,17,04,33,9.80
2009,05,17,04,34,9.80
2009,05,17,04,35,9.80
2009,05,17,04,36,9.80
2009,05,17,04,37,9.80
2009,05,17,04,38,9.80
2009,05,17,04,39,9.80
2009,05,17,04,40,9.80
2009,05,17,04,41,9.80
2009,05,17,04,42,9.70
2009,05,17,04,43,9.70
2009,05,17,04,44,9.70
2009,05,17,04,45,9.70
2009,05,17,04,46,9.70
2009,05,17,04,47,9.70
2009,05,17,04,48,9.70
2009,05,17,04,49,9.70
2009,05,17,04,50,9.70
2009,05,17,04,51,9.70
2009,05,17,04,52,9.70
2009,05,17,04,53,9.70
2009,05,17,04,54,9.70
2009,05,17,04,55,9.70
2009,05,17,04,56,9.70
2009,05,17,04,57,9.70
2009,05,17,04,58,9.70
2009,05,17,04,59,9.70
2009,05,17,05,00,9.70
2009,05,17,05,01,9.70
2009,05,17,05,02,9.70
2009,05,17,05,03,9.70
2009,05,17,05,04,9.70
2009,05,17,05,05,9.70
2009,05,17,05,06,9.70
2009,05,17,05,07,9.70
2009,05,17,05,08,9.70
2009,05,17,05,09,9.70
2009,05,17,05,10,9.70
2009,05,17,05,11,9.70
2009,05,17,05,12,9.70
2009,05,17,05,13,9.80
2009,05,17,05,14,9.80
2009,05,17,05,15,9.80
2009,05,17,05,16,9.80
2009,05,17,05,17,9.80
2009,05,17,05,18,9.80
2009,05,17,05,19,9.80
2009,05,17,05,20,9.80
2009,05,17,05,21,9.80
2009,05,17,05,22,9.80
2009,05,17,05,23,9.70
2009,05,17,05,24,9.70
2009,05,17,05,25,9.70
2009,05,17,05,26,9.70
2009,05,17,05,27,9.70
2009,05,17,05,28,9.70
2009,05,17,05,29,9.70
2009,05,17,05,30,9.70
2009,05,17,05,31,9.70
2009,05,17,05,32,9.70
2009,05,17,05,33,9.70
2009,05,17,05,34,9.80
2009,05,17,05,35,9.80
2009,05,17,05,36,9.80
2009,05,17,05,37,9.80
2009,05,17,05,38,9.80
2009,05,17,05,39,9.90
2009,05,17,05,40,9.90
2009,05,17,05,41,9.90
2009,05,17,05,42,9.90
2009,05,17,05,43,9.90
2009,05,17,05,44,9.90
2009,05,17,05,45,9.90
2009,05,17,05,46,9.90
2009,05,17,05,47,9.90
2009,05,17,05,48,9.90
2009,05,17,05,49,9.90
2009,05,17,05,50,9.90
2009,05,17,05,51,9.90
2009,05,17,05,52,9.90
2009,05,17,05,53,10.00
2009,05,17,05,54,10.00
2009,05,17,05,55,10.10
2009,05,17,05,56,10.10
2009,05,17,05,57,10.10
2009,05,17,05,58,10.10
2009,05,17,05,59,10.10
2009,05,17,06,00,10.10
2009,05,17,06,01,10.10
2009,05,17,06,02,10.20
2009,05,17,06,03,10.20
2009,05,17,06,04,10.20
2009,05,17,06,05,10.20
2009,05,17,06,06,10.30
2009,05,17,06,07,10.30
2009,05,17,06,08,10.30
2009,05,17,06,09,10.40
2009,05,17,06,10,10.40
2009,05,17,06,11,10.40
2009,05,17,06,12,10.50
2009,05,17,06,13,10.50
2009,05,17,06,14,10.60
2009,05,17,06,15,10.70
2009,05,17,06,16,10.70
2009,05,17,06,17,10.80
2009,05,17,06,18,10.80
2009,05,17,06,19,10.90
2009,05,17,06,20,11.00
2009,05,17,06,21,11.10
2009,05,17,06,22,11.10
2009,05,17,06,23,11.20
2009,05,17,06,24,11.30
2009,05,17,06,25,11.30
2009,05,17,06,26,11.40
2009,05,17,06,27,11.40
2009,05,17,06,28,11.40
2009,05,17,06,29,11.50
2009,05,17,06,30,11.50
2009,05,17,06,31,11.50
2009,05,17,06,32,11.60
2009,05,17,06,33,11.60
2009,05,17,06,34,11.70
2009,05,17,06,35,11.70
2009,05,17,06,36,11.80
2009,05,17,06,37,11.80
2009,05,17,06,38,11.80
2009,05,17,06,39,11.80
2009,05,17,06,40,11.90
2009,05,17,06,41,11.90
2009,05,17,06,42,11.90
2009,05,17,06,43,12.00
2009,05,17,06,44,12.00
2009,05,17,06,45,12.10
2009,05,17,06,46,12.10
2009,05,17,06,47,12.20
2009,05,17,06,48,12.20
2009,05,17,06,49,12.20
2009,05,17,06,50,12.30
2009,05,17,06,51,12.30
2009,05,17,06,52,12.40
2009,05,17,06,53,12.40
2009,05,17,06,54,12.40
2009,05,17,06,55,12.50
2009,05,17,06,56,12.50
2009,05,17,06,57,12.60
2009,05,17,06,58,12.70
2009,05,17,06,59,12.70
2009,05,17,07,00,12.80
2009,05,17,07,01,12.80
2009,05,17,07,02,12.90
2009,05,17,07,03,13.00
2009,05,17,07,04,13.10
2009,05,17,07,05,13.10
2009,05,17,07,06,13.20
2009,05,17,07,07,13.20
2009,05,17,07,08,13.30
2009,05,17,07,09,13.30
2009,05,17,07,10,13.30
2009,05,17,07,11,13.30
2009,05,17,07,12,13.30
2009,05,17,07,13,13.40
2009,05,17,07,14,13.40
2009,05,17,07,15,13.40
2009,05,17,07,16,13.40
2009,05,17,07,17,13.40
2009,05,17,07,18,13.40
2009,05,17,07,19,13.40
2009,05,17,07,20,13.40
2009,05,17,07,21,13.40
2009,05,17,07,22,13.40
2009,05,17,07,23,13.50
2009,05,17,07,24,13.50
2009,05,17,07,25,13.50
2009,05,17,07,26,13.60
2009,05,17,07,27,13.60
2009,05,17,07,28,13.60
2009,05,17,07,29,13.60
2009,05,17,07,30,13.60
2009,05,17,07,31,13.60
2009,05,17,07,32,13.60
2009,05,17,07,33,13.60
2009,05,17,07,34,13.70
2009,05,17,07,35,13.70
2009,05,17,07,36,13.70
2009,05,17,07,37,13.70
2009,05,17,07,38,13.80
2009,05,17,07,39,13.80
2009,05,17,07,40,13.90
2009,05,17,07,41,13.90
2009,05,17,07,42,14.00
2009,05,17,07,43,14.10
2009,05,17,07,44,14.10
2009,05,17,07,45,14.10
2009,05,17,07,46,14.10
2009,05,17,07,47,14.20
2009,05,17,07,48,14.20
2009,05,17,07,49,14.20
2009,05,17,07,50,14.30
2009,05,17,07,51,14.30
2009,05,17,07,52,14.30
2009,05,17,07,53,14.30
2009,05,17,07,54,14.30
2009,05,17,07,55,14.30
2009,05,17,07,56,14.30
2009,05,17,07,57,14.30
2009,05,17,07,58,14.30
2009,05,17,07,59,14.30
2009,05,17,08,00,14.40
2009,05,17,08,01,14.40
2009,05,17,08,02,14.40
2009,05,17,08,03,14.50
2009,05,17,08,04,14.50
2009,05,17,08,05,14.60
2009,05,17,08,06,14.60
2009,05,17,08,07,14.50
2009,05,17,08,08,14.50
2009,05,17,08,09,14.40
2009,05,17,08,10,14.30
2009,05,17,08,11,14.20
2009,05,17,08,12,14.10
2009,05,17,08,13,14.00
2009,05,17,08,14,13.90
2009,05,17,08,15,13.80
2009,05,17,08,16,13.70
2009,05,17,08,17,13.50
2009,05,17,08,18,13.40
2009,05,17,08,19,13.30
2009,05,17,08,20,13.20
2009,05,17,08,21,13.10
2009,05,17,08,22,13.10
2009,05,17,08,23,13.10
2009,05,17,08,24,13.10
2009,05,17,08,25,13.10
2009,05,17,08,26,13.10
2009,05,17,08,27,13.20
2009,05,17,08,28,13.30
2009,05,17,08,29,13.30
2009,05,17,08,30,13.40
2009,05,17,08,31,13.40
2009,05,17,08,32,13.40
2009,05,17,08,33,13.50
2009,05,17,08,34,13.60
2009,05,17,08,35,13.60
2009,05,17,08,36,13.70
2009,05,17,08,37,13.80
2009,05,17,08,38,13.80
2009,05,17,08,39,13.80
2009,05,17,08,40,13.80
2009,05,17,08,41,13.80
2009,05,17,08,42,13.80
2009,05,17,08,43,13.80
2009,05,17,08,44,13.70
2009,05,17,08,45,13.70
2009,05,17,08,46,13.60
2009,05,17,08,47,13.50
2009,05,17,08,48,13.40
2009,05,17,08,49,13.30
2009,05,17,08,50,13.30
2009,05,17,08,51,13.20
2009,05,17,08,52,13.20
2009,05,17,08,53,13.00
2009,05,17,08,54,12.90
2009,05,17,08,55,12.80
2009,05,17,08,56,12.60
2009,05,17,08,57,12.50
2009,05,17,08,58,12.50
2009,05,17,08,59,12.40
2009,05,17,09,00,12.30
2009,05,17,09,01,12.20
2009,05,17,09,02,12.00
2009,05,17,09,03,11.90
2009,05,17,09,04,12.00
2009,05,17,09,05,12.00
2009,05,17,09,06,12.00
2009,05,17,09,07,12.10
2009,05,17,09,08,12.00
2009,05,17,09,09,12.00
2009,05,17,09,10,12.10
2009,05,17,09,11,12.10
2009,05,17,09,12,12.20
2009,05,17,09,13,12.30
2009,05,17,09,14,12.40
2009,05,17,09,15,12.50
2009,05,17,09,16,12.60
2009,05,17,09,17,12.70
2009,05,17,09,18,12.80
2009,05,17,09,19,12.80
2009,05,17,09,20,12.90
2009,05,17,09,21,13.00
2009,05,17,09,22,13.10
2009,05,17,09,23,13.20
2009,05,17,09,24,13.30
2009,05,17,09,25,13.40
2009,05,17,09,26,13.50
2009,05,17,09,27,13.60
2009,05,17,09,28,13.70
2009,05,17,09,29,13.70
2009,05,17,09,30,13.70
2009,05,17,09,31,13.80
2009,05,17,09,32,13.80
2009,05,17,09,33,13.90
2009,05,17,09,34,14.00
2009,05,17,09,35,14.20
2009,05,17,09,36,14.10
2009,05,17,09,37,13.90
2009,05,17,09,38,13.70
2009,05,17,09,39,13.60
2009,05,17,09,40,13.50
2009,05,17,09,41,13.40
2009,05,17,09,42,13.30
2009,05,17,09,43,13.30
2009,05,17,09,44,13.40
2009,05,17,09,45,13.50
2009,05,17,09,46,13.60
2009,05,17,09,47,13.70
2009,05,17,09,48,13.90
2009,05,17,09,49,14.00
2009,05,17,09,50,14.10
2009,05,17,09,51,14.10
2009,05,17,09,52,14.20
2009,05,17,09,53,14.20
2009,05,17,09,54,14.20
2009,05,17,09,55,14.10
2009,05,17,09,56,14.00
2009,05,17,09,57,13.90
2009,05,17,09,58,13.80
2009,05,17,09,59,13.70
2009,05,17,10,00,13.60
2009,05,17,10,01,13.50
2009,05,17,10,02,13.40
2009,05,17,10,03,13.20
2009,05,17,10,04,13.00
2009,05,17,10,05,12.90
2009,05,17,10,06,12.90
2009,05,17,10,07,12.90
2009,05,17,10,08,13.00
2009,05,17,10,09,13.10
2009,05,17,10,10,13.20
2009,05,17,10,11,13.30
2009,05,17,10,12,13.40
2009,05,17,10,13,13.50
2009,05,17,10,14,13.50
2009,05,17,10,15,13.50
2009,05,17,10,16,13.50
2009,05,17,10,17,13.70
2009,05,17,10,18,13.80
2009,05,17,10,19,14.00
2009,05,17,10,20,14.10
2009,05,17,10,21,14.10
2009,05,17,10,22,14.10
2009,05,17,10,23,14.10
2009,05,17,10,24,14.00
2009,05,17,10,25,13.90
2009,05,17,10,26,13.80
2009,05,17,10,27,13.70
2009,05,17,10,28,13.60
2009,05,17,10,29,13.60
2009,05,17,10,30,13.60
2009,05,17,10,31,13.60
2009,05,17,10,32,13.60
2009,05,17,10,33,13.70
2009,05,17,10,34,13.70
2009,05,17,10,35,13.70
2009,05,17,10,36,13.70
2009,05,17,10,37,13.70
2009,05,17,10,38,13.70
2009,05,17,10,39,13.80
2009,05,17,10,40,13.80
2009,05,17,10,41,13.70
2009,05,17,10,42,13.70
2009,05,17,10,43,13.70
2009,05,17,10,44,13.70
2009,05,17,10,45,13.70
2009,05,17,10,46,13.80
2009,05,17,10,47,13.90
2009,05,17,10,48,13.90
2009,05,17,10,49,14.00
2009,05,17,10,50,14.10
2009,05,17,10,51,14.20
2009,05,17,10,52,14.30
2009,05,17,10,53,14.30
2009,05,17,10,54,14.30
2009,05,17,10,55,14.30
2009,05,17,10,56,14.20
2009,05,17,10,57,14.20
2009,05,17,10,58,14.20
2009,05,17,10,59,14.10
2009,05,17,11,00,14.10
2009,05,17,11,01,14.00
2009,05,17,11,02,13.80
2009,05,17,11,03,13.60
2009,05,17,11,04,13.50
2009,05,17,11,05,13.40
2009,05,17,11,06,13.50
2009,05,17,11,07,13.50
2009,05,17,11,08,13.50
2009,05,17,11,09,13.30
2009,05,17,11,10,13.30
2009,05,17,11,11,13.20
2009,05,17,11,12,13.10
2009,05,17,11,13,13.10
2009,05,17,11,14,13.10
2009,05,17,11,15,13.10
2009,05,17,11,16,13.10
2009,05,17,11,17,13.10
2009,05,17,11,18,13.20
2009,05,17,11,19,13.10
2009,05,17,11,20,13.10
2009,05,17,11,21,13.10
2009,05,17,11,22,13.10
2009,05,17,11,23,13.20
2009,05,17,11,24,13.20
2009,05,17,11,25,13.30
2009,05,17,11,26,13.20
2009,05,17,11,27,13.20
2009,05,17,11,28,13.20
2009,05,17,11,29,13.20
2009,05,17,11,30,13.10
2009,05,17,11,31,13.10
2009,05,17,11,32,13.10
2009,05,17,11,33,13.10
2009,05,17,11,34,13.10
2009,05,17,11,35,13.20
2009,05,17,11,36,13.20
2009,05,17,11,37,13.20
2009,05,17,11,38,13.30
2009,05,17,11,39,13.40
2009,05,17,11,40,13.50
2009,05,17,11,41,13.60
2009,05,17,11,42,13.70
2009,05,17,11,43,13.70
2009,05,17,11,44,13.90
2009,05,17,11,45,14.10
2009,05,17,11,46,14.30
2009,05,17,11,47,14.50
2009,05,17,11,48,14.70
2009,05,17,11,49,14.90
2009,05,17,11,50,15.00
2009,05,17,11,51,15.10
2009,05,17,11,52,15.20
2009,05,17,11,53,15.30
2009,05,17,11,54,15.40
2009,05,17,11,55,15.30
2009,05,17,11,56,15.10
2009,05,17,11,57,15.00
2009,05,17,11,58,15.00
2009,05,17,11,59,14.80
2009,05,17,12,00,14.60
2009,05,17,12,01,14.60
2009,05,17,12,02,14.70
2009,05,17,12,03,14.70
2009,05,17,12,04,14.80
2009,05,17,12,05,15.00
2009,05,17,12,06,15.00
2009,05,17,12,07,15.00
2009,05,17,12,08,15.20
2009,05,17,12,09,15.20
2009,05,17,12,10,15.20
2009,05,17,12,11,15.20
2009,05,17,12,12,15.10
2009,05,17,12,13,15.20
2009,05,17,12,14,15.30
2009,05,17,12,15,15.40
2009,05,17,12,16,15.30
2009,05,17,12,17,15.40
2009,05,17,12,18,15.50
2009,05,17,12,19,15.50
2009,05,17,12,20,15.60
2009,05,17,12,21,15.60
2009,05,17,12,22,15.50
2009,05,17,12,23,15.50
2009,05,17,12,24,15.60
2009,05,17,12,25,15.60
2009,05,17,12,26,15.70
2009,05,17,12,27,15.70
2009,05,17,12,28,15.70
2009,05,17,12,29,15.70
2009,05,17,12,30,15.70
2009,05,17,12,31,15.70
2009,05,17,12,32,15.70
2009,05,17,12,33,15.70
2009,05,17,12,34,15.80
2009,05,17,12,35,15.90
2009,05,17,12,36,16.10
2009,05,17,12,37,16.20
2009,05,17,12,38,16.40
2009,05,17,12,39,16.50
2009,05,17,12,40,16.50
2009,05,17,12,41,16.40
2009,05,17,12,42,16.10
2009,05,17,12,43,15.80
2009,05,17,12,44,15.80
2009,05,17,12,45,15.70
2009,05,17,12,46,15.70
2009,05,17,12,47,15.60
2009,05,17,12,48,15.50
2009,05,17,12,49,15.30
2009,05,17,12,50,15.20
2009,05,17,12,51,15.00
2009,05,17,12,52,15.00
2009,05,17,12,53,15.10
2009,05,17,12,54,15.20
2009,05,17,12,55,15.30
2009,05,17,12,56,15.30
2009,05,17,12,57,15.40
2009,05,17,12,58,15.50
2009,05,17,12,59,15.50
2009,05,17,13,00,15.50
2009,05,17,13,01,15.50
2009,05,17,13,02,15.50
2009,05,17,13,03,15.40
2009,05,17,13,04,15.30
2009,05,17,13,05,15.30
2009,05,17,13,06,15.40
2009,05,17,13,07,15.40
2009,05,17,13,08,15.60
2009,05,17,13,09,15.70
2009,05,17,13,10,15.80
2009,05,17,13,11,15.80
2009,05,17,13,12,15.80
2009,05,17,13,13,15.80
2009,05,17,13,14,15.90
2009,05,17,13,15,16.10
2009,05,17,13,16,16.20
2009,05,17,13,17,16.20
2009,05,17,13,18,16.10
2009,05,17,13,19,16.10
2009,05,17,13,20,16.00
2009,05,17,13,21,15.90
2009,05,17,13,22,15.90
2009,05,17,13,23,15.80
2009,05,17,13,24,15.90
2009,05,17,13,25,16.00
2009,05,17,13,26,16.10
2009,05,17,13,27,16.30
2009,05,17,13,28,16.50
2009,05,17,13,29,16.80
2009,05,17,13,30,16.90
2009,05,17,13,31,17.00
2009,05,17,13,32,17.00
2009,05,17,13,33,17.00
2009,05,17,13,34,16.80
2009,05,17,13,35,16.80
2009,05,17,13,36,16.70
2009,05,17,13,37,16.70
2009,05,17,13,38,16.90
2009,05,17,13,39,17.00
2009,05,17,13,40,17.10
2009,05,17,13,41,17.10
2009,05,17,13,42,17.10
2009,05,17,13,43,17.00
2009,05,17,13,44,17.00
2009,05,17,13,45,17.00
2009,05,17,13,46,17.00
2009,05,17,13,47,17.00
2009,05,17,13,48,17.00
2009,05,17,13,49,17.00
2009,05,17,13,50,17.00
2009,05,17,13,51,16.90
2009,05,17,13,52,16.70
2009,05,17,13,53,16.40
2009,05,17,13,54,16.20
2009,05,17,13,55,16.20
2009,05,17,13,56,16.20
2009,05,17,13,57,16.50
2009,05,17,13,58,16.70
2009,05,17,13,59,17.00
2009,05,17,14,00,17.20
2009,05,17,14,01,17.30
2009,05,17,14,02,17.50
2009,05,17,14,03,17.60
2009,05,17,14,04,17.60
2009,05,17,14,05,17.70
2009,05,17,14,06,17.70
2009,05,17,14,07,17.70
2009,05,17,14,08,17.70
2009,05,17,14,09,17.70
2009,05,17,14,10,17.80
2009,05,17,14,11,17.90
2009,05,17,14,12,18.00
2009,05,17,14,13,18.00
2009,05,17,14,14,17.90
2009,05,17,14,15,18.00
2009,05,17,14,16,18.00
2009,05,17,14,17,18.00
2009,05,17,14,18,18.00
2009,05,17,14,19,17.80
2009,05,17,14,20,17.70
2009,05,17,14,21,17.60
2009,05,17,14,22,17.60
2009,05,17,14,23,17.70
2009,05,17,14,24,17.90
2009,05,17,14,25,17.90
2009,05,17,14,26,17.90
2009,05,17,14,27,17.80
2009,05,17,14,28,17.70
2009,05,17,14,29,17.40
2009,05,17,14,30,17.30
2009,05,17,14,31,17.20
2009,05,17,14,32,17.10
2009,05,17,14,33,17.10
2009,05,17,14,34,17.10
2009,05,17,14,35,17.00
2009,05,17,14,36,16.80
2009,05,17,14,37,16.60
2009,05,17,14,38,16.40
2009,05,17,14,39,16.30
2009,05,17,14,40,16.40
2009,05,17,14,41,16.40
2009,05,17,14,42,16.50
2009,05,17,14,43,16.60
2009,05,17,14,44,16.70
2009,05,17,14,45,16.80
2009,05,17,14,46,16.80
2009,05,17,14,47,16.90
2009,05,17,14,48,16.90
2009,05,17,14,49,17.00
2009,05,17,14,50,17.00
2009,05,17,14,51,17.10
2009,05,17,14,52,17.20
2009,05,17,14,53,17.20
2009,05,17,14,54,17.20
2009,05,17,14,55,17.40
2009,05,17,14,56,17.50
2009,05,17,14,57,17.60
2009,05,17,14,58,17.60
2009,05,17,14,59,17.70
2009,05,17,15,00,17.80
2009,05,17,15,01,17.80
2009,05,17,15,02,17.80
2009,05,17,15,03,17.80
2009,05,17,15,04,17.80
2009,05,17,15,05,17.70
2009,05,17,15,06,17.60
2009,05,17,15,07,17.50
2009,05,17,15,08,17.50
2009,05,17,15,09,17.40
2009,05,17,15,10,17.30
2009,05,17,15,11,17.30
2009,05,17,15,12,17.40
2009,05,17,15,13,17.50
2009,05,17,15,14,17.50
2009,05,17,15,15,17.60
2009,05,17,15,16,17.70
2009,05,17,15,17,17.80
2009,05,17,15,18,17.80
2009,05,17,15,19,17.80
2009,05,17,15,20,17.90
2009,05,17,15,21,17.90
2009,05,17,15,22,17.80
2009,05,17,15,23,17.60
2009,05,17,15,24,17.60
2009,05,17,15,25,17.60
2009,05,17,15,26,17.60
2009,05,17,15,27,17.70
2009,05,17,15,28,17.80
2009,05,17,15,29,17.80
2009,05,17,15,30,17.80
2009,05,17,15,31,17.70
2009,05,17,15,32,17.70
2009,05,17,15,33,17.50
2009,05,17,15,34,17.30
2009,05,17,15,35,17.20
2009,05,17,15,36,17.10
2009,05,17,15,37,17.10
2009,05,17,15,38,17.10
2009,05,17,15,39,17.20
2009,05,17,15,40,17.10
2009,05,17,15,41,17.00
2009,05,17,15,42,16.70
2009,05,17,15,43,16.40
2009,05,17,15,44,16.20
2009,05,17,15,45,16.10
2009,05,17,15,46,16.00
2009,05,17,15,47,16.00
2009,05,17,15,48,15.90
2009,05,17,15,49,15.80
2009,05,17,15,50,15.80
2009,05,17,15,51,15.80
2009,05,17,15,52,15.70
2009,05,17,15,53,15.70
2009,05,17,15,54,15.80
2009,05,17,15,55,15.80
2009,05,17,15,56,15.90
2009,05,17,15,57,16.00
2009,05,17,15,58,16.20
2009,05,17,15,59,16.30
2009,05,17,16,00,16.40
2009,05,17,16,01,16.50
2009,05,17,16,02,16.60
2009,05,17,16,03,16.60
2009,05,17,16,04,16.70
2009,05,17,16,05,16.80
2009,05,17,16,06,16.90
2009,05,17,16,07,17.00
2009,05,17,16,08,17.00
2009,05,17,16,09,17.10
2009,05,17,16,10,17.10
2009,05,17,16,11,17.20
2009,05,17,16,12,17.30
2009,05,17,16,13,17.30
2009,05,17,16,14,17.30
2009,05,17,16,15,17.30
2009,05,17,16,16,17.30
2009,05,17,16,17,17.20
2009,05,17,16,18,17.20
2009,05,17,16,19,17.20
2009,05,17,16,20,17.00
2009,05,17,16,21,16.80
2009,05,17,16,22,16.80
2009,05,17,16,23,16.70
2009,05,17,16,24,16.80
2009,05,17,16,25,16.80
2009,05,17,16,26,16.80
2009,05,17,16,27,16.90
2009,05,17,16,28,16.90
2009,05,17,16,29,16.80
2009,05,17,16,30,16.60
2009,05,17,16,31,16.50
2009,05,17,16,32,16.40
2009,05,17,16,33,16.20
2009,05,17,16,34,15.90
2009,05,17,16,35,15.70
2009,05,17,16,36,15.40
2009,05,17,16,37,15.30
2009,05,17,16,38,15.30
2009,05,17,16,39,15.30
2009,05,17,16,40,15.30
2009,05,17,16,41,15.30
2009,05,17,16,42,15.20
2009,05,17,16,43,15.00
2009,05,17,16,44,14.70
2009,05,17,16,45,14.60
2009,05,17,16,46,14.50
2009,05,17,16,47,14.40
2009,05,17,16,48,14.30
2009,05,17,16,49,14.30
2009,05,17,16,50,14.30
2009,05,17,16,51,14.30
2009,05,17,16,52,14.40
2009,05,17,16,53,14.40
2009,05,17,16,54,14.40
2009,05,17,16,55,14.30
2009,05,17,16,56,14.20
2009,05,17,16,57,14.10
2009,05,17,16,58,14.00
2009,05,17,16,59,13.90
2009,05,17,17,00,13.90
2009,05,17,17,01,13.80
2009,05,17,17,02,13.60
2009,05,17,17,03,13.60
2009,05,17,17,04,13.60
2009,05,17,17,05,13.60
2009,05,17,17,06,13.60
2009,05,17,17,07,13.60
2009,05,17,17,08,13.70
2009,05,17,17,09,13.60
2009,05,17,17,10,13.60
2009,05,17,17,11,13.50
2009,05,17,17,12,13.50
2009,05,17,17,13,13.40
2009,05,17,17,14,13.40
2009,05,17,17,15,13.30
2009,05,17,17,16,13.10
2009,05,17,17,17,13.00
2009,05,17,17,18,12.90
2009,05,17,17,19,12.90
2009,05,17,17,20,12.90
2009,05,17,17,21,12.80
2009,05,17,17,22,12.80
2009,05,17,17,23,12.80
2009,05,17,17,24,12.80
2009,05,17,17,25,12.80
2009,05,17,17,26,12.80
2009,05,17,17,27,12.80